User: anonymous
Location: Lawrence Hall of Science
(37.8785°N, 122.2415°W)
Time: 05:30:12
(UTC-07:00)
Language:

NOSS 3-1 (C) - Orbit

View from above orbital plane
View from above orbital plane
View from above satellite
View from above satellite

Ground track
Ground track

The orbit data is extracted from the following two-line orbital elements,

1 26907U 01040C   14096.03191162 0.00000000  00000-0  00000-0 0    05
2 26907  63.4213 131.3507 0269000 358.2252   1.7748 13.41192478    06
Epoch (UTC): 06 April 2014 00:45:57
Eccentricity: 0.0269000
inclination: 63.4213°
perigee height: 903 km
apogee height: 1306 km
right ascension of ascending node: 131.3507°
argument of perigee: 358.2252°
revolutions per day: 13.41192478
mean anomaly at epoch: 1.7748°
orbit number at epoch: 0

The dashed part of the orbit path shows where the satellite is in the earth's shadow,  

DLR